Regional Weather Roundup
Issued by NWS

Home | Current Version | Previous Version | Graphics & Text | Print | Product List | Glossary On
Versions: 1 2 3 4 5 6 7 8 9 10 11 12 13 14 15 16 17 18 19 20 21 22 23 24 25 26 27 28 29 30 31 32 33 34 35 36 37 38 39 40 41 42 43 44 45 46 47 48 49 50
133
ASUS43 KMPX 162110
RWRMN
WEATHER ROUNDUP FOR MINNESOTA
NATIONAL WEATHER SERVICE TWIN CITIES/CHANHASSEN MN
400 PM CDT WED AUG 16 2017


NOTE: "FAIR" INDICATES FEW OR NO CLOUDS BELOW 12,000 FEET WITH NO
SIGNIFICANT WEATHER AND/OR OBSTRUCTIONS TO VISIBILITY. N/A MEANS
CURRENT SKY AND/OR WEATHER CONDITIONS ARE NOT AVAILABLE.

MNZ060>063-068>070-162200-
   Twin Cities Metro

CITY           SKY/WX    TMP DP  RH WIND       PRES   REMARKS
TWIN CITIES    CLOUDY    78  67  68 SE14      29.80F
ST PAUL        CLOUDY    77  70  79 E9        29.80F
CRYSTAL        CLOUDY    77  65  66 E9        29.79F
BLAINE         CLOUDY    79  72  78 E9        29.80F
LAKEVILLE      MOSUNNY   75  70  83 E9        29.79F
EDEN PRAIRIE   CLOUDY    77  69  76 E10       29.77F
SOUTH ST PAUL  CLOUDY    78  69  72 SE6       29.80F
LAKE ELMO      CLOUDY    77  70  78 E7        29.82F
$$
MNZ001>005-007-008-013>017-022>024-027-028-162200-
   Northwest Minnesota

CITY           SKY/WX    TMP DP  RH WIND       PRES   REMARKS
BEMIDJI        DRIZZLE   65  63  94 SE6       29.87S
HALLOCK        CLOUDY    66  63  88 E5        29.87S
ROSEAU         LGT RAIN  64  61  88 E6        29.88F
WARROAD        RAIN      63  59  88 E10       29.90S
THIEF RVR FALL LGT RAIN  65  64  97 NE5       29.86F FOG
CROOKSTON      DRIZZLE   66  64  94 NW3       29.85S
FOSSTON        DRIZZLE   64  63  94 CALM      29.86F
DETROIT LAKES  LGT RAIN  64  63  94 SE5       29.86S
MOORHEAD       LGT RAIN  66  66 100 CALM      29.83F
PARK RAPIDS    LGT RAIN  67  65  93 SE6       29.85F
MAHNOMEN       DRIZZLE   65  64  94 SE5       29.85S
$$
MNZ006-009>011-018-025>026-162200-
   North Central Minnesota

CITY           SKY/WX    TMP DP  RH WIND       PRES   REMARKS
BAUDETTE       LGT RAIN  63  62  97 CALM      29.89S FOG
FLAG ISLAND    CLOUDY    66  61  82 CALM      29.89S
INTL FALLS     HVY RAIN  63  61  93 CALM      29.92S VSB 3/4
WASKISH        RAIN      64  63  94 E3        29.88S
BIG FORK       RAIN      66  61  82 SE5       29.89F
LONGVILLE      LGT RAIN  64  63  94 CALM      29.87F
GRAND RAPIDS   LGT RAIN  64  62  93 SE5       29.91F
CRANE LAKE     LGT RAIN  68  59  73 CALM      29.92S
ORR            LGT RAIN  63  59  88 SE5       29.90R
COOK           RAIN      64  61  88 MISG      29.92S
WALKER         LGT RAIN  64  63  96 E5        29.86F
$$
MNZ012-019>021-037-162200-
   Northeast Minnesota

CITY           SKY/WX    TMP DP  RH WIND       PRES   REMARKS
DULUTH         LGT RAIN  61  61 100 E14       29.91F
ELY            LGT RAIN  70  55  60 S8        29.94S
HIBBING        LGT RAIN  63  62  97 SE8       29.90F FOG
EVELETH        LGT RAIN  64  58  81 SE9       29.93S
DULUTH HARBOR  CLOUDY    63  61  94 NE21      29.90F
TWO HARBORS    DRIZZLE   64  59  82 E7G16     29.92F
SILVER BAY     DRIZZLE   61  59  94 NE8       29.94F
GRAND MARAIS     N/A     64  59  83 NE9       29.97F
G MARAIS ARPRT CLOUDY    63  50  63 SE8       30.01S
$$
MNZ029>031-032-039>041-046>048-054>057-064-162200-
   West Central Minnesota

CITY           SKY/WX    TMP DP  RH WIND       PRES   REMARKS
FERGUS FALLS   DRIZZLE   70  70 100 CALM      29.82F
WHEATON        LGT RAIN  68  66  94 NE3       29.82F
MORRIS         RAIN      70  66  88 E7        29.80F
ALEXANDRIA     LGT RAIN  68  66  93 E6        29.85F
ELBOW LAKE     DRIZZLE   67  67  98 SE7       29.82F
WADENA         LGT RAIN  66  66 100 SE6       29.85S
GLENWOOD       LGT RAIN  66  66 100 NE5       29.83F
APPLETON       LGT RAIN  70  66  88 NE7       29.78F
BENSON         LGT RAIN  70  66  88 E5        29.81F
ORTONVILLE     LGT RAIN  68  64  88 MISG      29.79F
MADISON        RAIN      72  72 100 NE7       29.78F
WILLMAR        LGT RAIN  70  68  94 NE7       29.80F
$$
MNZ033>034-036-042>043-049>051-058-059-162200-
   Central Minnesota

CITY           SKY/WX    TMP DP  RH WIND       PRES   REMARKS
ST CLOUD       CLOUDY    70  68  93 E7        29.81F
SAUK CENTRE    RAIN      68  66  96 E5        29.83F
PAYNESVILLE    LGT RAIN  67  66  97 NE7       29.81F
AITKIN         LGT RAIN  64  63  94 CALM      29.86F
PINE RIVER     DRIZZLE   63  63 100 E5        29.89F
BRAINERD         N/A    N/A N/A N/A MISG      29.86F
STAPLES        RAIN      66  64  94 CALM      29.85F
LONG PRAIRIE   DRIZZLE   66  64  94 NE5       29.85S
LITTLE FALLS   LGT RAIN  66  63  88 CALM      29.85F
LITCHFIELD     DRIZZLE   70  70 100 NE3       29.80F
BUFFALO        CLOUDY    73  65  75 NE9       29.81F
MAPLE LAKE     CLOUDY    73  68  85 E8        29.81F
HUTCHINSON     CLOUDY    72  68  89 NE7       29.79F
$$
MNZ037-044-045-052-053-162200-
   East Central Minnesota

CITY           SKY/WX    TMP DP  RH WIND       PRES   REMARKS
PRINCETON      CLOUDY    73  66  78 E5        29.82F
MORA           CLOUDY    70  64  83 E3        29.85F
RUSH CITY      HVY RAIN  73  67  81 CALM      29.84F
MOOSE LAKE     CLOUDY    64  61  88 E6        29.87S
HINCKLEY       CLOUDY    72  64  78 NE3       29.85F
CLOQUET        CLOUDY    63  61  94 E10       29.90F
MCGREGOR       CLOUDY    64  63  94 E8        29.88F
$$
MNZ071>073-080-081-089-090-097-098-162200-
   Southwest Minnesota

CITY           SKY/WX    TMP DP  RH WIND       PRES   REMARKS
MONTEVIDEO     RAIN      68  68 100 E7        29.77F
GRANITE FALLS  RAIN      70  69  96 N10       29.77F
CANBY          RAIN      68  67  94 CALM      29.78F
MARSHALL       RAIN      67  66  97 NE13      29.74F FOG
REDWOOD FALLS  RAIN      69  67  93 VRB7      29.74F FOG
OLIVIA         LGT RAIN  70  68  94 NE8       29.76F
PIPESTONE      HVY RAIN  66  64  94 NE9G20    29.73F
WINDOM         HVY RAIN  70  66  88 N8        29.72F
WORTHINGTON    CLOUDY    69  67  93 E8        29.71F
JACKSON        RAIN      70  70 100 CALM      29.76S
TRACY          RAIN      67  67 100 NE6       29.75F
SLAYTON        HVY RAIN  65  61  86 NE12      29.75F
$$
MNZ065>067-074>077-082>085-091>093-162200-
   South Central Minnesota

CITY           SKY/WX    TMP DP  RH WIND       PRES   REMARKS
MANKATO        CLOUDY    78  72  81 E10       29.74F
NEW ULM        RAIN      72  70  94 E7        29.74F
ST JAMES       HVY RAIN  72  70  94 NE7       29.72F
FAIRMONT       RAIN      73  72  94 SE12      29.71F FOG
GLENCOE        CLOUDY    74  72  91 E10       29.77F
FARIBAULT      CLOUDY    79  72  78 E13       29.78F
OWATONNA       MOSUNNY   79  70  73 E16       29.77F
WASECA         CLOUDY    77  70  78 E14       29.77F
ALBERT LEA     CLOUDY    81  73  78 E13       29.75F
$$
MNZ078>079-086>088-094>096-162200-
   Southeast Minnesota

CITY           SKY/WX    TMP DP  RH WIND       PRES   REMARKS
ROCHESTER      CLOUDY    78  71  79 E10       29.80F
RED WING       CLOUDY    81  66  61 SE9       29.79F
STANTON        CLOUDY    79  70  74 E8        29.77F
DODGE CENTER   CLOUDY    79  70  73 E8        29.80F
WINONA         CLOUDY    81  68  65 SE10G16   29.80F
AUSTIN         CLOUDY    79  70  73 SE15      29.76F
PRESTON        CLOUDY    79  68  68 E14       29.80F
$$
ABBREVIATIONS USED IN REMARKS
   TC - TEMPERATURES IN CELSIUS
  WCI - WIND CHILL INDEX
   HX - HEAT INDEX
  VSB - VISIBILITY
$$




USA.gov is the U.S. government's official web portal to all federal, state and local government web resources and services.